Wind_Speed
55 57 57 58 58 58 59 60 60 60 59 59 58 57 57 57 56 54 53 53 52 51 50 49 47 47 47 47 47 46 46 46 46 45 45 45 46 44 43 43 44 45 44
56 57 57 57 58 58 59 59 59 58 57 57 56 55 54 53 52 51 50 49 49 47 46 45 44 44 43 43 42 43 42 43 42 41 42 41 42 41 40 40 41 42 42
56 56 57 57 57 57 57 57 56 55 55 54 53 52 51 50 50 48 47 46 45 44 43 43 42 42 41 40 39 38 39 39 39 39 39 39 38 38 39 38 39 39 40
56 56 56 57 57 56 55 54 54 53 52 51 49 49 48 47 46 45 44 42 41 41 40 40 40 40 38 37 35 35 35 35 36 37 37 35 36 36 37 36 35 37 38
56 56 55 55 55 55 54 53 52 51 49 48 47 45 44 44 43 42 41 40 39 38 37 37 37 36 35 34 34 33 33 33 34 35 34 33 33 34 34 34 35 35 35
55 55 54 54 53 52 52 51 50 48 46 45 43 43 42 41 40 40 40 39 37 36 35 34 34 34 34 33 33 33 32 32 32 32 32 32 31 31 33 33 33 34 33
53 53 53 53 51 50 49 47 46 45 43 41 40 39 38 37 37 37 37 35 34 32 32 30 30 31 31 31 31 31 31 30 30 31 31 31 31 30 30 30 32 31 29
52 52 52 50 48 47 46 44 42 41 39 38 37 36 35 34 34 33 33 32 30 30 30 28 27 28 29 29 30 29 29 29 30 29 28 28 29 28 27 28 29 28 27
51 50 49 47 45 43 42 41 40 38 36 35 33 33 32 31 30 29 29 28 27 26 26 25 24 25 27 27 28 27 27 27 27 27 28 27 27 28 28 28 27 26 26
49 47 46 44 43 41 39 38 36 35 33 32 31 30 28 26 26 25 25 25 25 24 24 24 23 24 25 26 26 25 25 24 24 25 26 27 27 27 26 26 26 25 24
46 44 43 42 42 40 38 36 34 32 29 28 27 26 24 23 21 21 21 21 22 22 22 23 23 23 24 24 24 24 24 24 24 25 25 26 27 26 25 24 23 22 22
43 42 41 41 39 38 36 33 31 29 26 25 23 22 20 20 19 19 18 19 20 21 22 23 23 23 24 23 24 24 24 24 23 24 24 24 24 24 23 22 22 21 21
42 41 40 38 37 35 33 30 28 26 24 22 21 19 19 19 19 18 18 18 18 18 20 21 22 22 23 23 23 23 23 22 22 22 22 22 22 23 22 21 21 20 20
40 39 38 36 34 32 30 27 25 22 21 19 18 18 18 17 17 17 17 17 16 17 18 19 20 20 21 22 22 22 22 21 22 21 20 20 21 22 21 20 20 19 19
38 37 35 33 31 29 27 25 22 19 18 17 17 17 16 16 15 16 16 17 16 16 17 18 19 20 20 20 20 21 21 21 21 21 20 19 19 20 19 18 17 17 17
35 33 31 29 27 25 23 21 19 17 16 16 15 16 16 15 15 15 15 16 16 16 16 18 19 20 19 19 20 20 20 20 20 19 18 17 17 17 17 16 15 15 15
31 29 28 26 24 22 20 18 17 17 17 16 15 15 15 15 15 15 15 16 17 17 16 17 19 19 18 18 19 19 19 19 18 17 17 17 16 16 15 14 13 13 13
28 26 24 22 21 20 18 16 16 16 17 16 15 15 15 15 15 14 14 16 17 17 17 17 18 18 17 18 18 18 19 18 17 16 16 16 15 14 13 12 12 12 12
25 23 22 21 20 18 16 15 15 16 16 16 16 16 16 15 16 16 16 16 17 17 18 18 18 18 17 18 18 18 18 17 17 16 16 15 14 13 12 12 11 11 11
22 21 20 19 17 15 14 14 15 16 16 16 16 16 16 16 16 16 17 17 17 18 19 18 19 18 18 17 17 17 17 17 16 15 15 14 13 12 11 11 11 10 10
19 18 18 18 16 16 15 15 16 16 16 16 16 16 16 16 16 16 16 17 18 19 20 19 19 18 18 17 16 16 16 16 15 15 15 14 12 11 10 10 10 10 9
18 18 18 17 16 16 15 15 15 15 15 15 16 16 17 16 16 16 17 18 19 20 20 19 18 18 17 17 16 16 15 15 15 15 14 13 11 11 10 9 9 8 8
17 17 17 16 15 14 14 14 14 15 15 15 15 16 16 17 17 17 17 19 20 21 20 19 19 18 18 17 16 16 16 16 14 13 13 12 11 10 9 9 9 8 7
16 16 15 15 14 13 13 13 13 14 14 15 16 16 17 17 18 18 19 19 20 20 20 20 19 19 18 18 17 17 16 16 14 13 13 12 11 10 9 9 8 7 5
14 14 14 13 13 13 13 13 13 13 14 15 16 16 17 17 18 18 19 20 20 20 19 19 19 19 19 19 18 17 16 15 14 13 13 12 10 10 10 9 7 6 5
12 12 12 12 12 13 13 14 14 14 14 15 16 17 17 17 18 19 20 20 20 20 20 20 21 21 21 19 18 17 17 16 14 14 12 12 11 11 10 9 7 6 6
Wind_Direction
291 291 290 291 290 290 289 288 288 288 286 285 283 282 281 281 279 277 275 274 272 271 269 267 265 265 264 263 261 258 257 256 255 249 245 245 246 248 249 252 251 252 251
291 291 292 292 291 290 289 288 288 288 287 285 283 282 280 279 277 276 275 273 271 271 267 264 263 263 264 262 260 256 255 253 252 246 242 242 243 245 249 251 250 250 249
292 292 293 293 293 292 290 289 288 287 286 285 283 281 280 278 277 275 273 271 269 268 265 262 261 262 261 260 257 253 251 249 249 246 240 241 242 245 246 250 250 249 251
293 293 293 294 293 292 291 290 288 287 286 284 282 281 279 278 276 273 271 269 268 266 265 262 259 259 258 256 253 249 246 246 245 241 238 241 243 244 246 248 249 249 250
293 294 293 293 293 293 292 290 290 288 287 284 282 281 279 278 275 271 268 267 266 265 263 259 256 256 255 253 248 244 242 242 240 238 238 239 241 243 244 246 248 249 249
293 294 294 294 294 293 291 290 290 288 286 284 282 280 278 277 275 270 267 264 263 261 260 256 253 254 253 248 243 240 239 238 239 238 238 238 239 242 242 244 246 246 247
293 294 294 295 295 293 293 292 291 289 287 284 280 278 277 276 272 269 266 263 260 259 256 251 250 251 249 244 239 236 234 236 237 236 236 237 238 240 241 243 244 243 244
293 293 294 295 295 294 293 292 291 290 287 282 280 277 276 276 272 267 263 259 257 255 250 247 249 246 244 239 233 231 233 234 235 234 234 236 238 240 244 244 241 241 241
293 293 294 294 295 294 293 292 290 288 286 283 280 278 276 272 267 263 258 255 253 248 243 243 242 238 238 235 232 230 230 231 230 231 232 236 239 240 240 239 238 240 241
293 293 293 293 294 293 292 291 289 287 284 281 279 277 274 268 263 260 256 253 247 242 239 239 237 236 236 233 229 228 228 227 228 230 233 236 237 237 237 237 237 240 240
291 292 292 292 292 292 291 289 286 284 281 279 277 274 267 261 256 256 253 248 244 239 238 235 233 234 231 228 225 223 223 225 228 231 233 233 234 236 235 234 235 237 239
291 291 291 291 291 292 291 288 285 281 278 275 272 268 260 255 252 251 249 247 243 240 236 235 235 232 227 225 222 221 223 226 226 227 228 229 231 231 230 231 234 239 242
291 290 289 290 290 290 288 286 282 276 274 271 266 259 253 252 250 250 247 245 243 239 235 233 230 228 225 222 220 221 224 224 222 221 223 226 227 228 230 232 237 240 241
288 288 287 287 287 285 283 282 278 271 269 265 258 253 250 247 246 244 241 239 237 231 227 224 221 217 217 218 217 219 219 219 218 218 220 223 225 228 231 236 239 240 242
287 287 286 285 284 282 279 278 272 265 262 257 251 248 244 242 241 237 233 229 225 221 217 214 211 208 209 213 215 215 213 212 212 214 217 221 226 229 231 233 235 240 246
285 285 285 283 281 278 276 272 265 258 251 248 245 241 238 238 232 225 223 222 220 216 214 212 207 204 207 210 210 208 208 208 209 213 216 218 221 224 228 233 238 242 245
284 284 283 281 278 274 272 266 257 250 244 241 237 233 232 228 223 220 220 219 213 210 208 205 203 201 204 206 203 203 206 207 208 211 214 215 220 226 230 235 238 241 245
282 282 279 276 272 268 265 260 251 243 239 237 233 229 227 224 220 218 217 212 208 208 203 200 199 198 199 198 197 201 203 205 206 208 210 214 221 225 228 233 236 240 243
280 278 275 272 267 263 261 257 244 236 233 232 231 228 224 220 217 216 213 209 207 205 199 195 196 197 195 192 193 197 200 200 200 204 209 216 221 224 228 229 231 234 237
276 274 270 265 259 257 257 251 240 235 230 227 225 223 220 216 215 213 210 208 205 201 196 194 193 191 189 190 192 195 196 196 200 206 212 215 215 216 220 224 229 230 230
272 268 264 259 257 257 254 248 240 233 229 225 220 219 216 212 209 207 207 203 200 196 193 191 189 187 186 187 189 190 191 195 200 204 207 208 208 212 216 221 222 219 221
268 265 260 257 258 257 251 243 233 227 225 222 219 216 211 206 202 203 202 198 196 194 192 190 188 186 187 187 189 190 189 192 194 197 198 200 204 208 212 214 209 207 214
265 260 256 255 254 249 242 233 225 222 221 218 214 208 203 202 200 198 196 193 192 190 189 187 185 184 184 185 187 186 183 184 188 189 189 192 198 204 205 200 198 204 213
258 253 250 249 245 239 230 222 217 214 213 208 202 199 198 197 194 191 190 188 186 185 185 184 181 180 180 181 182 181 182 183 184 185 186 190 197 201 197 194 196 202 208
249 246 244 241 235 228 222 217 210 205 202 197 193 193 192 191 187 185 184 183 182 182 182 182 181 179 176 176 177 180 181 181 182 184 186 189 192 192 191 191 194 196 197
243 241 238 232 225 218 213 208 200 195 192 190 188 186 184 182 182 182 181 180 180 181 181 179 178 177 176 176 178 179 178 177 179 180 182 183 184 182 181 183 186 188 184
Height
5599 5595 5591 5587 5582 5578 5573 5570 5565 5561 5557 5554 5551 5548 5546 5543 5540 5538 5537 5536 5535 5535 5535 5535 5536 5537 5539 5540 5543 5546 5549 5552 5558 5565 5569 5573 5577 5582 5586 5589 5592 5596 5600
5584 5580 5576 5571 5567 5562 5558 5553 5549 5545 5541 5537 5534 5532 5529 5527 5524 5523 5522 5520 5520 5520 5521 5521 5523 5524 5526 5528 5530 5534 5537 5541 5545 5552 5557 5561 5566 5570 5574 5577 5581 5584 5588
5569 5565 5561 5556 5551 5547 5542 5538 5533 5529 5525 5521 5518 5516 5514 5511 5509 5508 5506 5506 5507 5507 5508 5509 5511 5512 5515 5517 5519 5523 5527 5530 5535 5540 5546 5551 5555 5559 5563 5567 5570 5574 5577
5555 5551 5546 5541 5536 5532 5527 5523 5518 5514 5510 5507 5503 5501 5499 5497 5495 5494 5493 5493 5494 5495 5496 5498 5499 5501 5503 5506 5509 5513 5517 5521 5525 5530 5536 5541 5546 5549 5553 5557 5561 5564 5568
5541 5536 5531 5527 5522 5517 5512 5508 5504 5499 5495 5492 5490 5487 5485 5484 5482 5481 5481 5482 5483 5484 5486 5487 5489 5491 5493 5496 5500 5504 5508 5512 5517 5522 5527 5532 5536 5540 5545 5548 5552 5556 5559
5527 5521 5517 5512 5507 5503 5498 5494 5490 5486 5482 5479 5476 5475 5473 5472 5471 5469 5470 5471 5473 5474 5476 5478 5479 5482 5484 5487 5491 5496 5500 5504 5509 5514 5519 5524 5529 5533 5536 5540 5544 5547 5551
5513 5508 5503 5498 5494 5489 5485 5480 5476 5472 5469 5466 5464 5463 5462 5461 5459 5459 5460 5461 5463 5465 5467 5469 5471 5473 5475 5479 5483 5488 5493 5498 5503 5507 5513 5517 5522 5526 5529 5533 5536 5540 5543
5499 5495 5490 5485 5481 5476 5472 5468 5464 5461 5458 5455 5454 5452 5452 5451 5449 5449 5450 5451 5454 5456 5458 5461 5463 5466 5469 5472 5477 5482 5486 5491 5496 5501 5506 5510 5515 5518 5522 5525 5528 5532 5535
5486 5482 5478 5473 5469 5465 5461 5457 5454 5450 5448 5445 5444 5443 5442 5442 5441 5441 5441 5444 5446 5449 5451 5454 5457 5460 5463 5467 5471 5476 5481 5486 5490 5495 5499 5503 5508 5512 5515 5518 5521 5525 5528
5474 5470 5466 5461 5457 5454 5450 5447 5444 5441 5439 5437 5436 5435 5434 5434 5434 5434 5435 5437 5440 5443 5445 5448 5451 5454 5458 5462 5467 5472 5476 5481 5485 5489 5493 5498 5501 5505 5508 5512 5515 5519 5522
5462 5458 5454 5451 5447 5443 5440 5437 5434 5432 5430 5429 5428 5427 5427 5427 5428 5429 5430 5431 5434 5437 5440 5443 5446 5449 5453 5457 5462 5467 5471 5476 5480 5484 5488 5492 5496 5499 5503 5506 5510 5513 5516
5450 5447 5444 5440 5436 5433 5430 5428 5426 5424 5423 5422 5421 5421 5421 5422 5423 5424 5425 5426 5429 5431 5435 5438 5441 5445 5448 5453 5457 5462 5467 5471 5475 5479 5483 5487 5491 5495 5499 5502 5505 5507 5510
5439 5436 5433 5430 5427 5423 5421 5419 5417 5416 5416 5415 5415 5416 5416 5417 5418 5419 5421 5422 5424 5427 5430 5434 5437 5441 5444 5449 5453 5458 5462 5466 5470 5474 5479 5483 5487 5491 5494 5497 5500 5502 5505
5428 5426 5422 5420 5417 5415 5413 5411 5410 5409 5409 5409 5410 5411 5412 5413 5414 5416 5417 5419 5421 5424 5427 5430 5434 5437 5441 5446 5450 5454 5458 5463 5467 5471 5475 5479 5483 5486 5489 5492 5495 5497 5499
5418 5415 5412 5410 5408 5406 5405 5404 5403 5404 5403 5404 5405 5406 5407 5409 5411 5412 5414 5416 5419 5421 5424 5428 5431 5435 5439 5443 5447 5451 5455 5459 5463 5467 5472 5476 5479 5482 5485 5488 5490 5492 5494
5407 5405 5403 5401 5400 5399 5398 5398 5397 5398 5398 5399 5400 5401 5403 5405 5407 5409 5411 5414 5416 5419 5422 5426 5429 5433 5437 5441 5445 5449 5453 5457 5461 5465 5469 5472 5476 5479 5481 5484 5486 5488 5490
5398 5396 5395 5393 5392 5391 5391 5391 5392 5393 5393 5394 5396 5397 5399 5401 5404 5406 5409 5411 5414 5417 5420 5424 5427 5431 5435 5439 5443 5447 5451 5455 5459 5462 5466 5469 5472 5475 5477 5480 5482 5484 5486
5389 5387 5386 5386 5385 5385 5385 5386 5387 5388 5389 5390 5392 5393 5395 5398 5400 5403 5406 5409 5412 5415 5418 5422 5426 5429 5433 5437 5441 5445 5449 5453 5457 5460 5463 5466 5469 5472 5474 5477 5479 5480 5482
5381 5380 5379 5379 5379 5379 5379 5380 5381 5383 5385 5387 5388 5390 5392 5394 5397 5400 5403 5406 5410 5413 5417 5420 5424 5428 5431 5435 5439 5443 5447 5451 5454 5457 5461 5464 5466 5469 5471 5473 5475 5477 5478
5373 5373 5373 5373 5373 5373 5374 5375 5376 5378 5380 5382 5384 5386 5388 5391 5394 5397 5400 5403 5407 5411 5415 5419 5422 5426 5430 5434 5438 5441 5445 5448 5451 5455 5458 5460 5463 5466 5468 5470 5472 5474 5476
5367 5367 5367 5367 5368 5368 5369 5370 5371 5373 5376 5378 5380 5382 5385 5388 5391 5394 5397 5401 5404 5409 5413 5417 5421 5425 5429 5432 5436 5439 5443 5446 5449 5452 5455 5458 5461 5464 5466 5468 5470 5471 5473
5361 5361 5361 5362 5362 5363 5364 5365 5366 5369 5371 5374 5376 5379 5381 5384 5388 5392 5395 5398 5402 5407 5411 5416 5420 5424 5428 5431 5434 5437 5440 5443 5447 5450 5454 5457 5459 5462 5464 5466 5468 5469 5471
5354 5355 5356 5356 5357 5358 5359 5360 5362 5365 5367 5370 5373 5375 5379 5382 5386 5389 5393 5397 5401 5405 5410 5414 5419 5423 5426 5430 5433 5436 5439 5442 5446 5449 5452 5456 5458 5461 5463 5464 5466 5468 5469
5349 5349 5350 5351 5352 5354 5355 5357 5359 5361 5364 5367 5370 5373 5376 5380 5384 5388 5391 5395 5399 5404 5409 5413 5417 5421 5425 5429 5432 5435 5438 5441 5445 5448 5451 5454 5457 5459 5461 5463 5465 5466 5468
5343 5344 5345 5346 5348 5350 5352 5354 5356 5359 5362 5365 5368 5371 5375 5378 5382 5386 5391 5394 5399 5403 5408 5412 5416 5420 5424 5428 5431 5435 5438 5441 5444 5447 5450 5453 5455 5458 5460 5462 5464 5465 5467
5339 5340 5341 5342 5344 5346 5349 5351 5354 5357 5360 5363 5367 5370 5374 5377 5381 5385 5390 5394 5398 5403 5407 5411 5416 5420 5424 5428 5431 5434 5438 5441 5444 5447 5449 5452 5454 5457 5459 5461 5463 5464 5466